[[{"header":{"parameterUnit":"m.s-1","parameterCategory":1,"la1":30.2991,"la2":30.254,"lo1":-89.0895,"lo2":-89.0444,"dy":0.0017,"dx":0.0017,"nx":28,"ny":28,"refTime":"2024-08-02T03:00:00:Z","depth":0,"parameterNumber":2,"parameterNumberName":"U-component_of_WINDS"},"data":[0,0,0,0,0,0,0,0,0,0,0,0,0,0,0,0,0,0,0,0,0,0,0,0,0,0,0,0,0,0,0,0,0,0,0,0,0,0,0,0,0,0,0,0,0,0,0,0,0,0,0,0,0,0,0,0,0,0,1.917,1.9171,0,1.9266,1.9267,1.9268,1.9274,1.9272,1.9271,1.927,1.9373,1.9376,1.938,0,0,0,0,0,0,0,0,0,0,0,0,0,1.8994,1.8997,1.917,1.9171,1.9172,1.9266,1.9267,1.9269,1.9274,1.9272,1.9271,1.927,1.9371,1.9376,1.938,0,0,0,0,0,0,0,0,0,0,0,0,0,1.9079,1.8999,1.917,1.9186,1.9188,1.9266,1.9267,1.9269,1.9274,1.9272,1.9271,1.9269,1.937,1.9375,1.9381,1.945,0,0,1.9398,1.9401,0,0,0,0,0,0,0,0,1.9074,1.9085,1.9182,1.9185,1.9188,1.9256,1.9243,1.933,1.9275,1.9242,1.927,1.9268,1.9335,1.9344,1.9366,1.9454,1.9459,1.9399,1.9402,1.9405,1.9406,0,0,0,0,0,0,0,1.9068,1.9081,1.9208,1.9184,1.9187,1.919,1.92,1.9259,1.9297,1.9244,1.9245,1.9256,1.9337,1.936,1.9368,1.946,1.9399,1.9404,1.9407,1.9409,1.961,1.9612,0,0,0,0,0,0,1.9058,1.9076,1.9205,1.9211,1.9125,1.9194,1.9206,1.9236,1.9296,1.9304,1.9258,1.9256,1.9351,1.9362,1.9372,1.9455,1.9405,1.941,1.9413,1.9608,1.9611,1.9613,0,0,0,0,0,0,1.9055,1.907,1.9201,1.9144,1.9161,1.9199,1.9233,1.9239,1.9262,1.9306,1.9313,1.9274,1.9351,1.9364,1.943,1.9459,1.9412,1.9418,1.9606,1.9609,1.9612,1.9623,0,0,0,0,0,0,1.905,1.9068,1.9094,1.9144,1.9164,1.9256,1.9235,1.9242,1.9272,1.9271,1.9324,1.9331,1.935,1.9421,1.9436,1.9466,1.9422,1.9603,1.9607,1.9611,1.962,1.9626,1.9631,0,0,0,0,0,1.9043,1.9094,1.9095,1.9111,1.9196,1.9258,1.9269,1.9289,1.9274,1.93,1.9329,1.9329,1.9454,1.9428,1.9444,1.9477,1.9602,1.9606,1.961,1.9618,1.9625,1.9631,0,0,0,0,0,0,1.9048,1.9101,1.9103,1.9171,1.921,1.9259,1.9293,1.9296,1.9341,1.9338,1.9362,1.9374,1.9439,1.9465,1.9435,1.9546,1.9526,1.9534,1.9527,1.9534,1.9539,1.9531,1.9427,0,0,0,0,0,1.9056,1.9101,1.9146,1.9202,1.9222,1.9254,1.9282,1.9293,1.9335,1.9352,1.9385,1.9426,1.9474,1.9506,1.9553,1.9625,1.9636,1.9655,1.9661,1.9665,1.9671,1.971,1.9719,1.9627,1.9627,1.9627,0,0,1.9075,1.911,1.9137,1.9204,1.9235,1.9282,1.9268,1.9318,1.9353,1.936,1.9423,1.9449,1.9497,1.9566,1.9598,1.959,1.9699,1.967,1.9673,1.9677,1.9716,1.9724,1.9732,1.963,1.9629,1.9629,0,0,1.9133,1.9164,1.9213,1.9245,1.9292,1.9314,1.9326,1.9374,1.9391,1.9455,1.9462,1.9505,1.9588,1.9621,1.9649,1.972,1.9722,1.9735,1.9763,1.9801,1.9808,1.9814,1.9839,1.9847,1.9741,1.9741,1.9741,0,1.915,1.9219,1.9239,1.9289,1.9318,1.9326,1.9377,1.9407,1.9468,1.9489,1.9478,1.9582,1.9615,1.9691,1.9708,1.9731,1.9746,1.9728,1.9805,1.9812,1.9818,1.9842,1.9851,1.9742,1.9742,1.9742,1.9742,0,1.9238,1.9286,1.9321,1.9378,1.9412,1.9462,1.949,1.9522,1.9532,1.9554,1.962,1.966,1.9715,1.9734,1.9745,1.9813,1.9805,1.98,1.978,1.9828,1.985,1.9859,1.9744,1.9744,1.9743,1.9743,0,0,1.9299,1.9367,1.9379,1.9405,1.9458,1.9496,1.9547,1.96,1.9626,1.9669,1.9712,1.9783,1.9777,1.9809,1.9824,1.9858,1.991,1.9848,1.9849,1.9857,1.9987,1.9989,1.9999,1.9913,1.9915,1.9916,1.9982,0,1.9361,1.945,1.947,1.9547,1.9592,1.9601,1.9646,1.9684,1.9707,1.9749,1.9776,1.9824,1.9814,1.9833,1.9867,1.9896,1.9936,1.9892,1.9953,1.9955,1.9939,2.0011,2.0014,2.0075,1.9991,1.9993,1.9994,0,1.9445,1.9488,1.9569,1.9616,1.9636,1.9675,1.9725,1.9765,1.9809,1.9824,1.9859,1.987,1.9925,1.9903,1.9979,1.9948,1.9975,1.9993,1.9996,2.0001,1.9976,2.0017,2.0095,2.0103,2.0008,2.0007,2.0006,0,1.948,1.9558,1.9616,1.9639,1.9696,1.9723,1.9748,1.979,1.9821,1.9865,1.9885,1.9936,1.9963,2.0003,2.0027,2.001,2.0101,2.0082,2.0114,2.0114,2.0132,2.013,2.0213,2.0152,2.0151,2.0151,2.0151,0,1.9546,1.9595,1.9632,1.9668,1.9724,1.9747,1.9802,1.9828,1.9865,1.9907,1.9919,1.9958,1.9989,2.0033,2.0053,2.0112,2.0125,2.0139,2.0143,2.0137,2.0135,2.0153,2.0149,2.0154,2.0153,2.0153,2.0152,0,1.9593,1.962,1.9684,1.9733,1.9747,1.9785,1.9827,1.9863,1.9887,1.994,1.9954,1.9991,2.0043,2.0072,2.0138,2.0152,2.0217,2.0221,2.0202,2.0203,2.0234,2.023,2.0331,2.0345,2.0275,2.0276,2.0276,0,1.9632,1.967,1.9723,1.9751,1.9776,1.9822,1.9853,1.9878,1.991,1.9963,1.9992,2.0045,2.0088,2.0171,2.0205,2.0256,2.0259,2.0291,2.0267,2.0259,2.0258,2.0255,2.0258,2.0295,2.0295,2.0296,2.0296,0,1.9699,1.9711,1.9754,1.9802,1.9838,1.9878,1.9917,1.994,1.9972,2.0007,2.006,2.0094,2.0161,2.0213,2.0266,2.0294,2.03,2.0304,2.0314,2.0307,2.0294,2.03,2.0212,2.0301,2.0301,2.03,2.03,2.03,1.9742,1.9776,1.9818,1.9866,1.9898,1.9935,1.9971,1.9999,2.0043,2.0098,2.0111,2.0167,2.0211,2.0283,2.0312,2.0356,2.035,2.0365,2.0369,2.0371,2.0372,2.0288,2.0366,2.0366,2.0366,2.0366,2.0366,0,1.9808,1.9836,1.988,1.9934,1.9972,1.9975,2.0019,2.0051,2.0099,2.0139,2.0181,2.0242,2.0293,2.0331,2.0383,2.0411,2.0416,2.0424,2.0421,2.0427,2.0375,2.036,2.0419,2.0419,2.0419,2.0419,2.0419,2.0419,1.9847,1.9904,1.9921,1.9994,2.0022,2.0076,2.01,2.0135,2.0166,2.0233,2.0275,2.0299,2.0339,2.0394,2.0441,2.0451,2.0469,2.0477,2.0487,2.0437,2.0431,2.0426,2.0412,2.0481,2.0481,2.0536,2.0536,2.0537]},{"header":{"parameterUnit":"m.s-1","parameterCategory":1,"la1":30.2991,"la2":30.254,"lo1":-89.0895,"lo2":-89.0444,"dy":0.0017,"dx":0.0017,"nx":28,"ny":28,"refTime":"2024-08-02T03:00:00:Z","depth":0,"parameterNumber":3,"parameterNumberName":"V-component_of_WINDS"},"data":[0,0,0,0,0,0,0,0,0,0,0,0,0,0,0,0,0,0,0,0,0,0,0,0,0,0,0,0,0,0,0,0,0,0,0,0,0,0,0,0,0,0,0,0,0,0,0,0,0,0,0,0,0,0,0,0,0,0,4.7844,4.7845,0,4.794,4.7941,4.7942,4.7929,4.7927,4.7926,4.7924,4.8012,4.8016,4.8019,0,0,0,0,0,0,0,0,0,0,0,0,0,4.7639,4.7643,4.7844,4.7845,4.7846,4.7939,4.7941,4.7942,4.7929,4.7927,4.7925,4.7924,4.8011,4.8015,4.802,0,0,0,0,0,0,0,0,0,0,0,0,0,4.7731,4.7645,4.7844,4.7851,4.7853,4.7939,4.7941,4.7942,4.793,4.7927,4.7925,4.7923,4.8009,4.8015,4.802,4.8102,0,0,4.8038,4.804,0,0,0,0,0,0,0,0,4.7725,4.7738,4.7849,4.7851,4.7853,4.792,4.7901,4.7995,4.793,4.79,4.7924,4.7922,4.7983,4.799,4.8013,4.8106,4.811,4.8038,4.8042,4.8044,4.8046,0,0,0,0,0,0,0,4.7719,4.7734,4.7881,4.7851,4.7853,4.7846,4.7857,4.7919,4.7953,4.7903,4.7902,4.7914,4.7983,4.8008,4.8015,4.8111,4.8038,4.8043,4.8047,4.8049,4.8273,4.8275,0,0,0,0,0,0,4.7712,4.7729,4.7878,4.7884,4.7783,4.7852,4.7864,4.7901,4.7952,4.7958,4.7916,4.7913,4.7999,4.8008,4.8018,4.8116,4.8044,4.8049,4.8053,4.827,4.8273,4.8276,0,0,0,0,0,0,4.7708,4.7726,4.7875,4.7807,4.7825,4.7858,4.79,4.7904,4.7928,4.7963,4.7967,4.7935,4.7998,4.801,4.8081,4.8118,4.8052,4.8057,4.8267,4.8271,4.8275,4.8312,0,0,0,0,0,0,4.7702,4.7725,4.7758,4.7808,4.7829,4.794,4.7902,4.7907,4.7939,4.7937,4.7982,4.7987,4.7997,4.8073,4.8087,4.8125,4.8061,4.8264,4.8269,4.8273,4.8308,4.8317,4.8324,0,0,0,0,0,4.7695,4.7763,4.776,4.7778,4.7872,4.7942,4.7954,4.7966,4.7943,4.7975,4.7997,4.7986,4.8112,4.808,4.8096,4.8136,4.8262,4.8268,4.8273,4.8304,4.8315,4.8324,0,0,0,0,0,0,4.7714,4.777,4.7767,4.7854,4.7894,4.794,4.7981,4.7978,4.8022,4.8017,4.8028,4.8038,4.811,4.813,4.8094,4.8217,4.8183,4.8192,4.8201,4.8212,4.822,4.8213,4.8066,0,0,0,0,0,4.7729,4.7784,4.7828,4.79,4.7921,4.7948,4.7978,4.7985,4.8025,4.8041,4.8068,4.8104,4.8152,4.8183,4.8229,4.831,4.8319,4.8346,4.8354,4.8361,4.8368,4.8411,4.8423,4.8295,4.8295,4.8295,0,0,4.7759,4.7796,4.783,4.7905,4.7937,4.799,4.7962,4.802,4.8059,4.8048,4.8118,4.8139,4.818,4.8256,4.8291,4.8275,4.8405,4.8368,4.8373,4.8377,4.8418,4.843,4.8441,4.8299,4.8298,4.8297,0,0,4.7841,4.7876,4.794,4.7973,4.8022,4.8039,4.8054,4.8101,4.8116,4.8186,4.818,4.8224,4.8307,4.8336,4.8362,4.8454,4.8445,4.8469,4.8512,4.8554,4.8564,4.8573,4.8604,4.8615,4.8476,4.8476,4.8476,0,4.7871,4.7956,4.7972,4.8031,4.8063,4.806,4.8122,4.8152,4.8212,4.8232,4.8215,4.8318,4.8345,4.8428,4.8451,4.8472,4.8487,4.8463,4.8562,4.8571,4.8579,4.8609,4.8621,4.8479,4.8478,4.8478,4.8478,0,4.7989,4.8047,4.8092,4.8154,4.8191,4.8252,4.8273,4.8308,4.8311,4.8329,4.84,4.8433,4.8485,4.8505,4.8507,4.8587,4.8576,4.856,4.8526,4.8594,4.8622,4.8634,4.8482,4.8481,4.848,4.848,0,0,4.8086,4.8157,4.8173,4.8201,4.8255,4.8298,4.8356,4.8411,4.844,4.8481,4.8528,4.8598,4.8584,4.8613,4.8618,4.8655,4.8724,4.8634,4.8635,4.8648,4.8812,4.8824,4.8837,4.8719,4.8721,4.8723,4.8808,0,4.8172,4.8281,4.8297,4.839,4.8443,4.844,4.849,4.8527,4.8545,4.8589,4.8607,4.8657,4.8635,4.8652,4.8689,4.8708,4.8757,4.8702,4.876,4.8762,4.875,4.8852,4.8864,4.8944,4.882,4.8822,4.8823,0,4.8288,4.8336,4.8436,4.8483,4.8505,4.8551,4.8601,4.8645,4.8685,4.8695,4.8728,4.8729,4.8786,4.8751,4.8828,4.879,4.8814,4.8827,4.8831,4.8836,4.8796,4.8858,4.8969,4.8981,4.8841,4.884,4.8838,0,4.8347,4.8436,4.8507,4.8531,4.8587,4.8619,4.8643,4.8682,4.8713,4.8756,4.8775,4.8823,4.8848,4.8884,4.8896,4.8869,4.8972,4.8938,4.8979,4.8979,4.9,4.8998,4.9115,4.9018,4.9017,4.9017,4.9017,0,4.8441,4.8502,4.8535,4.8578,4.8646,4.8662,4.8726,4.8748,4.8783,4.8828,4.8827,4.8868,4.8883,4.8926,4.8935,4.8996,4.9008,4.9015,4.9017,4.9015,4.9014,4.9031,4.9025,4.902,4.902,4.9019,4.9018,0,4.8518,4.8543,4.862,4.8668,4.8681,4.8728,4.8767,4.8807,4.8825,4.8882,4.8896,4.8923,4.8974,4.899,4.905,4.9056,4.9127,4.9124,4.9115,4.9115,4.9155,4.9151,4.9286,4.9303,4.9195,4.9196,4.9197,0,4.8576,4.8623,4.8677,4.8709,4.8736,4.8787,4.882,4.8836,4.8869,4.8919,4.8952,4.9003,4.9045,4.9125,4.9148,4.9193,4.9191,4.9235,4.9197,4.9194,4.919,4.9187,4.919,4.9241,4.9242,4.9243,4.9244,0,4.8676,4.8686,4.8736,4.8789,4.8829,4.8871,4.8911,4.8937,4.8958,4.8995,4.9049,4.9082,4.9144,4.9194,4.924,4.9261,4.9255,4.9256,4.9268,4.9266,4.9258,4.9262,4.9133,4.9253,4.9252,4.9251,4.9251,4.925,4.8744,4.8786,4.8831,4.8885,4.8918,4.8956,4.8996,4.902,4.9067,4.9122,4.9127,4.9184,4.9221,4.9283,4.9307,4.9349,4.9336,4.9353,4.9357,4.9361,4.9364,4.9253,4.9357,4.9357,4.9357,4.9357,4.9357,0,4.8843,4.8873,4.8923,4.8981,4.9023,4.9018,4.9062,4.9096,4.9148,4.9185,4.9227,4.9287,4.9335,4.9362,4.9409,4.9438,4.9436,4.945,4.9447,4.9452,4.9374,4.9358,4.945,4.945,4.945,4.945,4.945,4.945,4.89,4.897,4.8986,4.9071,4.9098,4.9157,4.9183,4.9216,4.9246,4.9315,4.9356,4.9375,4.9406,4.9456,4.9498,4.9505,4.9521,4.9536,4.954,4.9467,4.9457,4.9448,4.9434,4.954,4.954,4.9615,4.9615,4.9616]}]]